[[{"header":{"parameterUnit":"m.s-1","parameterCategory":1,"la1":30.2991,"la2":30.254,"lo1":-89.0895,"lo2":-89.0444,"dy":0.0017,"dx":0.0017,"nx":28,"ny":28,"refTime":"2024-02-16T09:00:00:Z","depth":0,"parameterNumber":2,"parameterNumberName":"U-component_of_WINDS"},"data":[0,0,0,0,0,0,0,0,0,0,0,0,0,0,0,0,0,0,0,0,0,0,0,0,0,0,0,0,0,0,0,0,0,0,0,0,0,0,0,0,0,0,0,0,0,0,0,0,0,0,0,0,0,0,0,0,0,0,-0.5329,-0.533,0,-0.5369,-0.537,-0.537,-0.5353,-0.5352,-0.5351,-0.535,-0.5393,-0.5395,-0.5397,0,0,0,0,0,0,0,0,0,0,0,0,0,-0.5241,-0.5242,-0.5329,-0.533,-0.533,-0.5369,-0.537,-0.537,-0.5353,-0.5352,-0.5351,-0.5349,-0.5392,-0.5395,-0.5397,0,0,0,0,0,0,0,0,0,0,0,0,0,-0.528,-0.5243,-0.5329,-0.5326,-0.5326,-0.5369,-0.537,-0.537,-0.5353,-0.5352,-0.535,-0.5349,-0.5391,-0.5394,-0.5397,-0.5446,0,0,-0.5407,-0.5408,0,0,0,0,0,0,0,0,-0.5278,-0.5283,-0.5326,-0.5326,-0.5327,-0.5354,-0.5354,-0.5396,-0.5354,-0.5343,-0.535,-0.5348,-0.5381,-0.5385,-0.5396,-0.5448,-0.545,-0.5407,-0.5409,-0.541,-0.5411,0,0,0,0,0,0,0,-0.5275,-0.5281,-0.5345,-0.5327,-0.5327,-0.5324,-0.5328,-0.5362,-0.537,-0.5344,-0.5343,-0.5348,-0.5381,-0.5393,-0.5397,-0.545,-0.5407,-0.541,-0.5412,-0.5413,-0.5546,-0.5547,0,0,0,0,0,0,-0.5272,-0.5279,-0.5344,-0.5346,-0.5298,-0.5327,-0.5331,-0.5347,-0.537,-0.5372,-0.5349,-0.5347,-0.5389,-0.5393,-0.5398,-0.5458,-0.541,-0.5413,-0.5415,-0.5544,-0.5546,-0.5548,0,0,0,0,0,0,-0.527,-0.5278,-0.5342,-0.5312,-0.532,-0.533,-0.5348,-0.5349,-0.536,-0.5373,-0.5375,-0.5359,-0.5388,-0.5394,-0.5434,-0.5459,-0.5415,-0.5417,-0.5542,-0.5545,-0.5547,-0.5576,0,0,0,0,0,0,-0.5267,-0.5277,-0.5295,-0.5313,-0.5322,-0.5377,-0.5349,-0.535,-0.5365,-0.5363,-0.5383,-0.5385,-0.5387,-0.543,-0.5437,-0.5462,-0.542,-0.554,-0.5543,-0.5546,-0.5573,-0.5579,-0.5585,0,0,0,0,0,-0.5264,-0.5302,-0.5296,-0.5304,-0.5344,-0.5378,-0.5384,-0.5384,-0.5367,-0.5386,-0.5395,-0.5385,-0.5455,-0.5434,-0.5443,-0.5469,-0.5538,-0.5542,-0.5546,-0.557,-0.5578,-0.5584,0,0,0,0,0,0,-0.5287,-0.5304,-0.5298,-0.5342,-0.5359,-0.5375,-0.5399,-0.5392,-0.5414,-0.5411,-0.5411,-0.5416,-0.5458,-0.5467,-0.5444,-0.5518,-0.5494,-0.55,-0.551,-0.5517,-0.5523,-0.552,-0.5422,0,0,0,0,0,-0.5297,-0.5322,-0.5336,-0.5374,-0.5382,-0.5389,-0.5404,-0.5403,-0.542,-0.5428,-0.5439,-0.5457,-0.5484,-0.5501,-0.5526,-0.5574,-0.5579,-0.5596,-0.5602,-0.5607,-0.5612,-0.564,-0.5648,-0.556,-0.556,-0.556,0,0,-0.5318,-0.5331,-0.5347,-0.5379,-0.5391,-0.5419,-0.5395,-0.5425,-0.5445,-0.5432,-0.5471,-0.548,-0.5501,-0.5546,-0.5566,-0.5555,-0.5637,-0.5612,-0.5615,-0.5618,-0.5645,-0.5653,-0.566,-0.5563,-0.5562,-0.5562,0,0,-0.5371,-0.5382,-0.5415,-0.5429,-0.5449,-0.5453,-0.5461,-0.5479,-0.5484,-0.5523,-0.5514,-0.5539,-0.5584,-0.5599,-0.5613,-0.5673,-0.5665,-0.5681,-0.5711,-0.5739,-0.5745,-0.5752,-0.5774,-0.5782,-0.5685,-0.5686,-0.5686,0,-0.5395,-0.5435,-0.5433,-0.5464,-0.5479,-0.5468,-0.5502,-0.5516,-0.5543,-0.5554,-0.554,-0.5597,-0.561,-0.5659,-0.5674,-0.5685,-0.5695,-0.5679,-0.5744,-0.5751,-0.5756,-0.5778,-0.5786,-0.5687,-0.5687,-0.5687,-0.5687,0,-0.5464,-0.5492,-0.5517,-0.5543,-0.556,-0.5593,-0.5597,-0.5615,-0.5613,-0.5619,-0.566,-0.5675,-0.5703,-0.5714,-0.5712,-0.5764,-0.5756,-0.5744,-0.5721,-0.5767,-0.5787,-0.5795,-0.569,-0.5689,-0.5689,-0.5688,0,0,-0.5532,-0.5557,-0.5567,-0.5579,-0.56,-0.5622,-0.5655,-0.5682,-0.5698,-0.5717,-0.5745,-0.5784,-0.5773,-0.5788,-0.5788,-0.5811,-0.5859,-0.5796,-0.5797,-0.5809,-0.5919,-0.5929,-0.5938,-0.5854,-0.5856,-0.5857,-0.5918,0,-0.5587,-0.5643,-0.5643,-0.5696,-0.5722,-0.5712,-0.5741,-0.5758,-0.5764,-0.5789,-0.5796,-0.5824,-0.5807,-0.5816,-0.5839,-0.5849,-0.5882,-0.5844,-0.5882,-0.5883,-0.5878,-0.5949,-0.5959,-0.6016,-0.5925,-0.5927,-0.5928,0,-0.5659,-0.5681,-0.5735,-0.5754,-0.5765,-0.579,-0.5816,-0.5839,-0.5858,-0.5861,-0.5879,-0.5875,-0.591,-0.5885,-0.5933,-0.5908,-0.5923,-0.593,-0.5932,-0.5937,-0.5909,-0.5956,-0.6034,-0.6043,-0.594,-0.5939,-0.5938,0,-0.5705,-0.5747,-0.5786,-0.5797,-0.5819,-0.5837,-0.5847,-0.5865,-0.5882,-0.5904,-0.5915,-0.5942,-0.5957,-0.5978,-0.5982,-0.5963,-0.6031,-0.6006,-0.6036,-0.6036,-0.6051,-0.605,-0.6133,-0.6059,-0.6059,-0.6059,-0.6059,0,-0.5767,-0.5801,-0.5807,-0.5831,-0.5869,-0.5869,-0.5908,-0.5917,-0.5933,-0.5959,-0.5952,-0.5977,-0.598,-0.6007,-0.601,-0.605,-0.6057,-0.6061,-0.6062,-0.6063,-0.6062,-0.6074,-0.607,-0.6061,-0.606,-0.606,-0.606,0,-0.5825,-0.583,-0.5872,-0.5889,-0.5894,-0.5922,-0.5938,-0.5961,-0.5967,-0.6001,-0.6009,-0.6019,-0.6049,-0.6055,-0.6091,-0.6094,-0.6142,-0.6138,-0.6135,-0.6135,-0.6166,-0.6163,-0.626,-0.6273,-0.6189,-0.619,-0.619,0,-0.5865,-0.5891,-0.5912,-0.5928,-0.5939,-0.5966,-0.5983,-0.5985,-0.6003,-0.6028,-0.6049,-0.6078,-0.6102,-0.6152,-0.6163,-0.6191,-0.6189,-0.6221,-0.6193,-0.6193,-0.6191,-0.619,-0.6193,-0.6227,-0.6227,-0.6228,-0.6229,0,-0.5936,-0.5937,-0.5961,-0.5987,-0.6007,-0.6028,-0.6047,-0.6062,-0.6066,-0.6087,-0.6118,-0.6136,-0.6174,-0.6204,-0.6232,-0.6244,-0.6238,-0.6237,-0.6246,-0.6247,-0.6245,-0.6248,-0.6151,-0.6235,-0.6235,-0.6234,-0.6234,-0.6234,-0.5987,-0.601,-0.6028,-0.6056,-0.6071,-0.6089,-0.6112,-0.6121,-0.6147,-0.6177,-0.6176,-0.6211,-0.6231,-0.6268,-0.6281,-0.6309,-0.6299,-0.6311,-0.6315,-0.6318,-0.6322,-0.624,-0.6314,-0.6314,-0.6314,-0.6314,-0.6314,0,-0.6059,-0.607,-0.6095,-0.6123,-0.6145,-0.6136,-0.6157,-0.6177,-0.6207,-0.6225,-0.6249,-0.6286,-0.6315,-0.6329,-0.6358,-0.6378,-0.6376,-0.6386,-0.6385,-0.6388,-0.6328,-0.6318,-0.6387,-0.6387,-0.6387,-0.6387,-0.6387,-0.6387,-0.6099,-0.6138,-0.6141,-0.6188,-0.62,-0.6233,-0.6246,-0.6263,-0.6278,-0.6319,-0.6343,-0.6352,-0.6369,-0.64,-0.6427,-0.643,-0.6442,-0.6454,-0.6456,-0.64,-0.6392,-0.6385,-0.6376,-0.6456,-0.6456,-0.6514,-0.6514,-0.6515]},{"header":{"parameterUnit":"m.s-1","parameterCategory":1,"la1":30.2991,"la2":30.254,"lo1":-89.0895,"lo2":-89.0444,"dy":0.0017,"dx":0.0017,"nx":28,"ny":28,"refTime":"2024-02-16T09:00:00:Z","depth":0,"parameterNumber":3,"parameterNumberName":"V-component_of_WINDS"},"data":[0,0,0,0,0,0,0,0,0,0,0,0,0,0,0,0,0,0,0,0,0,0,0,0,0,0,0,0,0,0,0,0,0,0,0,0,0,0,0,0,0,0,0,0,0,0,0,0,0,0,0,0,0,0,0,0,0,0,2.02,2.02,0,2.0176,2.0175,2.0175,2.0217,2.0218,2.022,2.0221,2.0189,2.0187,2.0185,0,0,0,0,0,0,0,0,0,0,0,0,0,2.0276,2.0274,2.02,2.0199,2.0199,2.0176,2.0175,2.0175,2.0216,2.0218,2.022,2.0222,2.019,2.0187,2.0185,0,0,0,0,0,0,0,0,0,0,0,0,0,2.0246,2.0273,2.02,2.0217,2.0219,2.0176,2.0175,2.0175,2.0216,2.0218,2.022,2.0222,2.0191,2.0187,2.0184,2.0121,0,0,2.0174,2.0173,0,0,0,0,0,0,0,0,2.0248,2.0243,2.0215,2.0216,2.0217,2.0202,2.0191,2.0157,2.0216,2.0217,2.0221,2.0223,2.0191,2.0188,2.0178,2.012,2.0118,2.0174,2.0172,2.0171,2.017,0,0,0,0,0,0,0,2.025,2.0244,2.019,2.0214,2.0216,2.0224,2.0222,2.0184,2.0192,2.0217,2.022,2.0217,2.0192,2.0181,2.0178,2.0118,2.0174,2.0171,2.0169,2.0168,2.0006,2.0004,0,0,0,0,0,0,2.025,2.0246,2.0191,2.0189,2.0238,2.0221,2.0219,2.0204,2.0193,2.0193,2.0215,2.0219,2.0186,2.0182,2.0177,2.0102,2.0171,2.0168,2.0166,2.0008,2.0006,2.0003,0,0,0,0,0,0,2.0252,2.0245,2.0192,2.0218,2.0212,2.0218,2.0201,2.0203,2.0192,2.0191,2.0192,2.0203,2.0187,2.0182,2.0135,2.0102,2.0166,2.0163,2.0011,2.0008,2.0004,1.9952,0,0,0,0,0,0,2.0254,2.0245,2.0223,2.0218,2.0211,2.0152,2.0199,2.0201,2.0187,2.0192,2.018,2.018,2.0189,2.014,2.0132,2.0098,2.0161,2.0014,2.001,2.0005,1.9957,1.9947,1.9939,0,0,0,0,0,2.0256,2.0208,2.0222,2.0215,2.0183,2.015,2.0146,2.0159,2.0185,2.0161,2.016,2.0181,2.0107,2.0135,2.0126,2.0091,2.0016,2.0011,2.0006,1.9961,1.9949,1.9939,0,0,0,0,0,0,2.0206,2.0207,2.0223,2.0171,2.0161,2.0157,2.0128,2.0146,2.0126,2.0131,2.0145,2.0142,2.0092,2.0087,2.0118,2.0029,2.0066,2.0058,2.0034,2.0023,2.0015,2.0016,2.0158,0,0,0,0,0,2.0189,2.0165,2.0166,2.012,2.0115,2.0122,2.0108,2.0119,2.0108,2.0103,2.0099,2.0085,2.0059,2.0041,2.0017,1.9957,1.9954,1.9928,1.9919,1.9912,1.9905,1.9872,1.986,1.9986,1.9986,1.9986,0,0,2.0153,2.0151,2.0134,2.011,2.0103,2.0075,2.0118,2.0086,2.0065,2.0097,2.0054,2.005,2.0036,1.9983,1.9959,1.9977,1.987,1.9905,1.99,1.9896,1.9865,1.9854,1.9843,1.9982,1.9983,1.9983,0,0,2.0074,2.007,2.0032,2.0025,2.0015,2.0021,2.0011,2.0006,2.0005,1.9963,1.9986,1.996,1.9915,1.9904,1.9892,1.981,1.9827,1.9801,1.9754,1.9722,1.9712,1.9703,1.9672,1.9661,1.9795,1.9795,1.9795,0,2.003,1.9991,2.0009,1.9977,1.9965,1.9996,1.9955,1.9947,1.9928,1.9918,1.994,1.9884,1.9877,1.9821,1.9801,1.9791,1.9779,1.9802,1.9712,1.9704,1.9696,1.9667,1.9655,1.9791,1.9792,1.9792,1.9792,0,1.9937,1.991,1.9879,1.9864,1.9849,1.9812,1.9823,1.9805,1.9818,1.9821,1.9776,1.9769,1.9743,1.9731,1.9742,1.9676,1.9688,1.9711,1.9747,1.968,1.9653,1.9642,1.9787,1.9788,1.9789,1.979,0,0,1.9823,1.9819,1.9808,1.9801,1.9793,1.9771,1.9736,1.9714,1.9697,1.9684,1.9653,1.9615,1.9637,1.9623,1.9633,1.9605,1.9539,1.9631,1.9631,1.9613,1.9465,1.9447,1.9434,1.9552,1.955,1.9548,1.9466,0,1.9743,1.9685,1.9701,1.9641,1.9616,1.9645,1.9614,1.9605,1.9607,1.9583,1.9585,1.9557,1.9588,1.958,1.9554,1.9553,1.9509,1.9559,1.9521,1.9519,1.9522,1.942,1.94,1.9323,1.9455,1.9453,1.9452,0,1.9642,1.9627,1.9566,1.9563,1.9553,1.9525,1.9506,1.9484,1.9474,1.9477,1.9463,1.9479,1.9442,1.9481,1.9429,1.9463,1.9448,1.9445,1.9443,1.9438,1.948,1.941,1.9298,1.9286,1.9436,1.9437,1.9438,0,1.9563,1.9528,1.9487,1.948,1.9476,1.9455,1.9452,1.9444,1.943,1.9413,1.9404,1.9381,1.9369,1.935,1.9359,1.9387,1.9305,1.9345,1.9305,1.9304,1.9284,1.9285,1.9166,1.9278,1.9278,1.9278,1.9279,0,1.9471,1.9432,1.9452,1.9426,1.9383,1.9401,1.9357,1.9357,1.935,1.9323,1.9347,1.9321,1.9336,1.931,1.9317,1.9272,1.9266,1.9266,1.9268,1.9263,1.9263,1.9252,1.9257,1.9275,1.9276,1.9277,1.9277,0,1.9375,1.9387,1.9344,1.9344,1.9343,1.9311,1.931,1.9286,1.9291,1.9257,1.9249,1.9256,1.9227,1.9235,1.9203,1.9207,1.9151,1.916,1.9155,1.9156,1.9115,1.9118,1.8984,1.8967,1.9091,1.909,1.9089,0,1.9315,1.9286,1.9284,1.9269,1.9265,1.9241,1.9227,1.9244,1.9228,1.9215,1.9191,1.9166,1.9145,1.9098,1.9098,1.9074,1.9082,1.9036,1.9078,1.9074,1.9079,1.908,1.9076,1.9027,1.9026,1.9025,1.9024,0,1.9206,1.9214,1.9195,1.9177,1.9161,1.9148,1.9136,1.9122,1.9138,1.9119,1.9091,1.9076,1.9045,1.9018,1.8996,1.8991,1.9008,1.9011,1.9,1.8994,1.8991,1.899,1.913,1.9013,1.9014,1.9015,1.9016,1.9016,1.9125,1.9101,1.9096,1.9073,1.9067,1.9056,1.9033,1.9036,1.9014,1.8992,1.9003,1.8971,1.896,1.8933,1.8925,1.8899,1.8915,1.89,1.8896,1.8891,1.8885,1.8998,1.8895,1.8895,1.8895,1.8895,1.8896,0,1.9016,1.9015,1.8995,1.8979,1.8961,1.8984,1.8972,1.8955,1.8927,1.8918,1.8898,1.8866,1.8841,1.884,1.8815,1.8794,1.8802,1.8787,1.8787,1.8785,1.8872,1.8884,1.8781,1.8781,1.8781,1.8781,1.8781,1.8781,1.8957,1.8917,1.8924,1.8881,1.888,1.885,1.8842,1.8831,1.8824,1.8788,1.8768,1.8768,1.8761,1.8737,1.8714,1.8714,1.8703,1.8685,1.8688,1.8768,1.8779,1.879,1.8801,1.8683,1.8683,1.8603,1.8602,1.8601]}]]